Powrót do katalogu

CZ-6A DEB

AktywnyPO
NORAD 60981·DEBRIS·🇨🇳 China

Wystrzelony Aug 6, 2024 z Taiyuan Satellite Launch Center

Loading…

Następne Przeloty (najbliższe 24 godziny)

TLE

ŚwieżeSource: Space-Track

Epoka: Sep 14, 2026, 05:19 UTC

1 60981U 24140MG  26257.22154367  .00000509  00000-0  27332-3 0  9991
2 60981  88.8435 252.7140 0103494 282.5259  76.4363 14.08952927106538

Śledź CZ-6A DEB w czasie rzeczywistym z AllMySat

Download on the App Store